BREEZE-M DEB (TANK), 37828

Orbit data source: Space-Track

BREEZE-M DEB (TANK), 37828 is space debris in HEO originally from a launch on Thu, 29 Sep 2011 UTC launched from the Tyuratam Missile And Space Complex (TTMTR). Debris objects in space refer to the collection of defunct objects orbiting the Earth. Examples of debris include non-operational satellites, rocket bodies, and fragments generated from explosions, collisions, or faulty payload assembly.

Loading next visibility...
Identifier
37828, 2011-054C
Orbit
HEO
Country
Flag of CISCIS
Related business
Manufacturer
Khrunichev
Mission
Spacecraft
Bus & Motor
BRIZ TANK, Unknown motor
Mass
~1,000 kg wet, 1,000 kg dry
Launch date (UTC)
2011-09-29 (14 years ago)
Launch vehicle
Unknown
Launch site
Tyuratam Missile And Space Complex (TTMTR)
Object type
Payload
Rocket body
Debris
Shape & HBR
Torus, 2.0 m
Radar Cross Section
8.218 m², Large (>1 m²)

Expand to show TLE details & history
Last TLE update: 16 hours ago

TLE from 16 hours ago
0 BREEZE-M DEB (TANK)
1 37828U 11054C   25260.56657952  .00001893  00000-0  72569-3 0  9992
2 37828  49.4233 154.8394 5474553   7.2384 358.2643  4.80680461234902
Epoch: 2025-09-17T13:35Z
TLE epoch observation values (Epoch: 2025-09-17T13:35:52.47Z)
Latitude
0.00018°
Longitude
-45.86303°
Altitude
350.126 km
Speed
9.572 km/s
True Right ascension
10h 19m 23s
True Declination
0° 00' 01"
Sunlit
Object was in daylight at epoch
Visualization orbit readout
Latitude
Unknown
Longitude
Unknown
Altitude
Unknown
Speed
Unknown
Apparent Right ascension
Unknown
Apparent Declination
Unknown
Sunlit
N/A
Visualization observer readout
Local Sidereal Time
22:53:20
Azimuth
Unknown
Elevation
Unknown
Doppler factor
Unknown
Orbital elements
Apogee altitude
16,572.913 km
Perigee altitude
333.77 km
Semi-major axis
14,831.478 km
Eccentricity
0.54746
Inclination
49.4233°
RAAN
154.8394°
Arg. of periapsis
7.2384°
True anomaly
352.9204°
Mean anomaly
358.2643°
Eccentric anomaly
356.16803°
Mean motion
1.20162 °/min
Orbital period
299.6 mins
BSTAR
0.00072569
Loading maneuver chart data...
Computing Atmospheric mass density...
Loading historical data...
Loading historical data...
Loading historical data...
Loading historical data...
Loading historical data...
Loading historical data...
Loading historical data...
Other satellites on launch #54 in the year 2011 (2011-09-29 UTC)

Documentation

Showing up to 5 results
|